200 serials | hdd regenerator 2011 serial number

Date Name Success Rate
2009-10-17 06:21:32 DOC Regenerator V2.11 46%
2009-10-17 06:24:21 HDD Regenerator V1.42 48%
2009-10-17 06:24:21 HDD Regenerator V1.51 32%
2009-10-17 06:27:56 MediaCam AV Creator V5.0.1.0 Serial Number By HaMMerHeAD 56%
2009-10-17 06:33:31 TurboBackup V6.0 Bld 0020240118 Serial Number By HaMMerHeAD 54%
2009-10-17 06:36:31 XLS Regenerator V2.12 53%
2009-10-22 23:27:11 ACID Music Studio 6 Serial Number 67%
2009-10-22 23:27:23 Ashampoo HDD Control 1.00 54%
2009-10-22 23:27:23 Ashampoo HDD Control V1.01 0%
2009-10-22 23:27:23 Ashampoo HDD Control V1.10 0%
2009-10-22 23:27:27 AVG Anti Virus 8.5 Pro Free + Serial Number Untill 2018 82%
2009-10-22 23:45:53 Color By Number 2.0 81%
2009-10-22 23:45:54 Condition Zero Real Serial Number 49%
2009-10-22 23:46:26 DFX 8.0 For All Player Except Divx 8.0 Serial Number: 20%
2009-10-22 23:46:26 DFX FOR ALL PLAYERS 7.2 Serial Number: 41%
2009-10-22 23:46:26 DFX For Windows Media Player 6.4 Serial Number: 71%
2009-10-22 23:46:28 DOC Regenerator 2.11 48%
2009-10-22 23:47:42 Ephypad No Version Number 0%
2009-10-22 23:47:50 Fifa 2009 2009 Serial Number 63%
2009-10-22 23:47:50 FIFA Manager 2005 Serial Number 60%
2009-10-22 23:47:53 Free Serial Number Illustrator CS3 90%
2009-10-22 23:48:06 Halo 2 Serial Number 31%
2009-10-22 23:48:07 HDD Easy Recovery 63%
2009-10-22 23:48:07 HDD Regenerator 59%
2009-10-22 23:48:07 HDD Regenerator 1.22 0%
2009-10-22 23:48:07 HDD Regenerator 1.31 0%
2009-10-22 23:48:07 HDD Regenerator 1.41 45%
2009-10-22 23:48:07 HDD Regenerator 1.42 12%
2009-10-22 23:48:07 HDD Regenerator 1.51 55%
2009-10-22 23:48:07 HDD Regenerator V1.41 0%
2009-10-22 23:48:07 HDD Regenerator V1.51 0%
2009-10-22 23:48:07 HDD Regenerator V1.51 REPACK-DVT 45%
2009-10-22 23:48:07 HDD Thermometer 1.2 Build 58 20%
2009-10-22 23:48:07 HDD Thermometer 1.3 Beta (build: 60) 33%
2009-10-22 23:48:07 HDD Thermometer V1.3b 20%
2009-10-22 23:48:46 MatLab V6.5.1 PLP Serial Number 62%
2009-10-22 23:48:48 MFL-Adobe Photoshop Elements 2 0 Multilanguage With Serial Number 65%
2009-10-22 23:48:50 Mobile Phone IMEI (Serial) Number 77%
2009-10-22 23:48:59 Nero 6 Reloaded 6.6.0.1 Future Versions Serial Number 60%
2009-10-22 23:49:02 Number Crunch 1.0 66%
2009-10-22 23:49:02 Number Hunt 1.0 0%
2009-10-22 23:49:02 Number Nine Software Melon V2.0.0.47 0%
2009-10-22 23:49:02 Number Nine Software PennyWise.2007 0%
2009-10-22 23:49:19 Panda Antivirus Platinum Internet Security 2006 10.00.00 Serial Number 58%
2009-10-22 23:49:21 PDF Page Number 1.0.2 0%
2009-10-22 23:49:35 QuickTime Player 6.5.2 Serial Number 63%
2009-10-22 23:49:41 RAM And HDD Cleaner 5.1 0%
2009-10-22 23:49:41 RAM And HDD Cleaner 5.2 0%
2009-10-22 23:49:51 SchoolGrad 2.0 SERIAL NUMBER 50%
2009-10-22 23:49:58 Spell-Mell No Version Number 0%
2009-10-22 23:49:59 StarCraft Serial Number!! 37%
2009-10-22 23:50:10 Tiger Woods PGA Tour 2004 Serial Number 0%
2009-10-22 23:50:13 TuneUp Utilities 2007 6.0.1255 Serial Number 62%
2009-10-22 23:50:34 Whats On My Computer 1.0.1.30 Retail Serial Number; 62%
2009-10-22 23:50:46 Xilisoft Video Converter 3.1 Serial Number 78%
2009-10-22 23:50:46 XLS Regenerator 2.12 60%
2011-09-08 09:45:43 25 Number Game v1.4 47%
2011-09-08 10:08:51 Ashampoo HDD Control 1.11 0%
2011-09-08 10:25:56 Cheyenne Bitware V4.0 Registration Number 60%
2011-09-08 10:27:53 Color By Number 2.0 58%
2011-09-08 10:27:53 Color By Number v1.0 0%
2011-09-08 10:28:35 Condition Zero Real Serial Number 77%
2011-09-08 10:32:08 credit card number american express 61%
2011-09-08 10:44:22 DOC Regenerator 2.11 0%
2011-09-08 10:44:22 DOC Regenerator v2.11 40%
2011-09-08 10:49:37 Ephypad No version number 0%
2011-09-08 11:02:09 Gear audio v1.0 Number 0%
2011-09-08 11:06:18 HDD Control 1.10 0%
2011-09-08 11:06:18 HDD regenerator 73%
2011-09-08 11:06:18 HDD Regenerator 1.22 96%
2011-09-08 11:06:18 HDD Regenerator 1.31 0%
2011-09-08 11:06:18 HDD Regenerator 1.42 0%
2011-09-08 11:06:18 HDD regenerator Shell v1.22 by SnD 0%
2011-09-08 11:06:18 HDD Regenerator v1.22 0%
2011-09-08 11:06:18 HDD Regenerator v1.31 0%
2011-09-08 11:06:18 HDD Regenerator v1.32 0%
2011-09-08 11:06:18 HDD Regenerator v1.41 0%
2011-09-08 11:06:18 HDD Regenerator v1.42 9%
2011-09-08 11:06:33 Hex WorkShop Serial Number 58%
2011-09-08 11:15:09 Incremental Serial Number Printer 1.0.0.7 0%
2011-09-08 11:15:19 Informed Number Server 1.0.2 80%
2011-09-08 11:15:19 Informed Number Server v1.0.2 0%
2011-09-08 11:27:18 Lottery Number $elector 2.0 52%
2011-09-08 11:27:18 Lottery Number $elector v2.0 56%
2011-09-08 11:27:18 Lottery Number Picker 3.52 53%
2011-09-08 11:27:18 Lottery Number Picker v3.52 52%
2011-09-08 11:29:50 Matlab v6.5.1 PLP Number 0%
2011-09-08 11:43:41 Number Crunch 1.0 0%
2011-09-08 11:43:41 Number Crunch v1.0 57%
2011-09-08 11:43:41 Number Hunt 1.0 0%
2011-09-08 11:43:41 Number Hunt v1.0 by Sponge Uk 0%
2011-09-08 12:26:20 Odin HDD Encryption 3.5 0%
2011-09-08 12:26:20 Odin HDD Encryption 4.3.2 0%
2011-09-08 12:29:28 PDF Page Number 1.02 0%
2011-09-08 12:29:28 PDF Page Number v1.02 0%
2011-09-08 12:33:25 Photovista Customer Number 0%
2011-09-08 12:33:25 PhotoVista Customer Number: 57770 First 0%
2011-09-08 12:33:52 Pinnacle Studio 9 (delivered with Dazzle) serial number 70%
2011-09-08 12:33:52 Pinnacle Studio 9 SE serial number 81%
2011-09-08 12:34:02 Pinnacle Studio Plus, Studio 9 Plus 9.3.0 serial number 83%
2011-09-08 12:36:39 Prime Number Spiral v6.56 0%
2011-09-08 12:40:12 RAM and HDD Cleaner 5.1 0%
2011-09-08 12:40:12 RAM and HDD Cleaner 5.2 100%
2011-09-08 12:40:12 RAM and HDD Cleaner v5.1 0%
2011-09-08 12:40:12 RAM and HDD Cleaner v5.2 0%
2011-09-08 12:40:21 RAM&HDD Cleaner 5.2 0%
2011-09-08 12:40:21 RAM&HDD Cleaner v5.1 0%
2011-09-08 12:40:21 RAM&HDD Cleaner v5.2 0%
2011-09-08 12:40:24 Random Clock Number Generator 1.0 0%
2011-09-08 12:40:24 Random Clock Number Generator v1.0 63%
2011-09-08 12:41:21 Registry Mechanic 2011 10.0.0.132 45%
2011-09-08 12:44:06 Roxio Creator Pro 2011 0%
2011-09-08 12:46:25 Secure Number Fonts 3.6 11%
2011-09-08 12:48:28 SLNet Number: 1234567 76%
2011-09-08 12:51:10 Spell-Mell no version number by DBC 0%
2011-09-08 12:53:04 The Cleaner 2011 7.0.0.3124 0%
2011-09-08 12:56:11 TuneUp Utilities 2011 10.0.2011.65 36%
2011-09-08 13:17:11 Whats on my computer 1.0.1.30 Retail Serial number 60%
2011-09-08 13:17:11 Whats on my computer 1.0.1.30 Retail Serial number; 62%
2011-09-08 13:17:37 WinApiOblets v1.02 Use this Number 0%
2011-09-08 13:18:38 Windraft v2.02 Maximum Number 0%
2011-09-08 13:19:13 WinOnCD Creator (German) 2011 0%
2011-09-08 13:22:48 XLS Regenerator 2.12 0%
2012-12-11 23:12:10 Acad 2011 0%
2012-12-12 00:18:49 After Effects Serial Number Work 41%
2012-12-12 02:19:11 ARO 2011 0%
2012-12-12 02:26:26 Ashampoo HDD Control 0%
2012-12-12 02:26:30 Ashampoo HDD Control 1.12 0%
2012-12-12 02:26:32 Ashampoo HDD Control 2.v2.07 0%
2012-12-12 02:26:34 Ashampoo HDD Control 2.v2.08 0%
2012-12-12 02:26:40 Ashampoo HDD Control v1.11 0%
2012-12-12 02:33:34 Ashampoo® HDD Control 0%
2012-12-12 02:58:58 AutoCAD 2011 75%
2012-12-12 02:58:59 Autocad 2011 64Bit 100%
2012-12-12 02:59:12 Autocad mechanical 2011 51%
2012-12-12 02:59:46 Autodesk 3DS Max 2011 52%
2012-12-12 03:10:43 Avast 2011 0%
2012-12-12 03:11:48 Avast 5.0.337 2011 0%
2012-12-12 03:12:02 Avast Antivirus 2011 0%
2012-12-12 03:19:36 AVG 2011 0%
2012-12-12 03:19:38 Avg 2011 full licience serial upto 2018 0%
2012-12-12 03:23:02 Avg antivirus 2011 0%
2012-12-12 03:24:32 AVG Internet Security 2011 0%
2012-12-12 03:26:52 AVG PC Tuneup 2011 0%
2012-12-12 03:26:56 AVG PC Tuneup 2011 (01/09/2011) 0%
2012-12-12 03:26:58 AVG PC Tuneup 2011 (JUL 2011) 0%
2012-12-12 03:27:00 AVG PC Tuneup 2011 (May 07/2011 ) 0%
2012-12-12 03:28:12 AVG.Internet.Security.2011 0%
2012-12-12 04:11:52 Bijoy Banno 2011 15%
2012-12-12 04:13:06 BinarySense HDD Temperature v 4.0.24 0%
2012-12-12 04:16:04 Bitdefender 2011 0%
2012-12-12 04:16:39 Bitdefender free 2011 0%
2012-12-12 04:18:20 BitDefender Total Security 2011 0%
2012-12-12 04:18:47 Bitderfender internet secury 2011 0%
2012-12-12 04:27:29 Blumentals WeBuilder 2011.v11.2.2.131 54%
2012-12-12 04:27:31 Blumentals WeBuilder 2011.v11.3.0.132 0%
2012-12-12 04:36:30 BrasFoot 2011 0%
2012-12-12 05:36:34 CheckDrive 2011 0%
2012-12-12 06:26:53 Cool Resizer 2011.v7.0 0%
2012-12-12 06:48:31 Crysis 2 (2011) PC 0%
2012-12-12 06:56:19 CyberLink PhotoDirector 2011.v2.0.1816 0%
2012-12-12 07:13:40 David.fx 2011 Basic-Edition 2011, 2 User 0%
2012-12-12 07:23:29 Delphi 2011 0%
2012-12-12 07:53:27 Diskeeper 2011 Professional 0%
2012-12-12 08:08:19 Dr Hardware 2011.v11.0.0 0%
2012-12-12 08:13:09 Drive Scanner 2011 0%
2012-12-12 08:15:41 Driver genius 2011 june 0%
2012-12-12 08:18:51 Driver Robot 2010-2011 0%
2012-12-12 08:19:12 Driver Scanner 2011 [Working] 0%
2012-12-12 11:35:28 Farminsimulator 2011 0%
2012-12-12 11:46:57 FIFA 2011 0%
2012-12-12 11:46:59 FIFA 2011 Online Key 0%
2012-12-12 12:43:28 Fussball Manager 2011 0%
2012-12-12 13:05:30 Gaurdian Antivirus 2011 0%
2012-12-12 13:16:20 GFI LanGuard 2011.v10.2.20111128 20%
2012-12-12 13:57:04 Hastasoft Betriebsausgabenbuch 2011.v1.0 0%
2012-12-12 14:00:39 HDD Control 1.11 0%
2012-12-12 14:35:17 Hunting Unlimited 2011 100%
2012-12-12 16:44:12 Kaspersky 2011 Internet Security 0%
2012-12-12 16:44:14 Kaspersky 2011-2012 52%
2012-12-12 16:47:19 Kaspersky intent security 2011 0%
2012-12-12 16:48:35 Kaspersky intrnet squrity 2011 0%
2012-12-12 17:04:44 KIS 2011 0%
2012-12-12 17:21:53 Landwirtschafts simulator 2011 13%
2012-12-12 17:22:05 Landwirtschaftssimulator 2011 0%
2012-12-12 18:23:29 MahJong Suite 2011.v8.6 0%
2012-12-12 18:31:40 Malwarebytes serial 01/18/2011 0%
2012-12-12 18:51:02 Mcafee internet security 2011 56%
2012-12-12 19:38:23 Microsoft oficce 2011 0%
2012-12-12 20:19:08 Mobile number database v.1 56%
2012-12-12 20:43:36 MoviePlusx5 2011 0%
2012-12-12 21:01:44 Multilizer 2011.Enterprise v7.8.5 75%
2012-12-12 22:00:39 Net Protector 2011 0%
2012-12-12 22:00:39 Net Protector 2011 14%
2012-12-12 22:00:40 Net Protector Antivirus 2011 85%
2012-12-12 22:41:03 NOD 32 2011 KEY 0%
2012-12-12 22:42:46 Nod32 2011 0%
2012-12-12 22:54:11 Norton AntiVirus 2011 0%
2012-12-12 22:55:46 Norton Internet Security 2011 0%
2012-12-12 23:19:55 Odin HDD Encryption 6.6.3 0%